Simultaneous Nadir Overpasses (SNOs) Predictions

Prediction of SNOs between AURA and NPP Satellite Orbit:

Table of predicted SNOs for the next 14.0 days since TLE Epoch: 11/29/2014
Index Date (AURA) Time (AURA) Lat,Lon (AURA) SZA (AURA ) Date (NPP) Time (NPP) Lat,Lon (NPP) SZA (NPP ) Distance(km) Time Diff (sec)
1 11/29/2014 21:56:45 76.66, 94.17 116.40 11/29/2014 21:55:50 76.65, 94.07 116.47 2.74 55
2 11/29/2014 22:45:50 -77.71, -94.14 64.74 11/29/2014 22:46:11 -77.71, -94.10 64.77 1.28 21
3 12/02/2014 14:13:06 77.16,-148.12 116.31 12/02/2014 14:12:31 77.16,-148.09 116.34 0.59 35
4 12/02/2014 15:02:19 -77.83, 22.27 64.43 12/02/2014 15:03:01 -77.83, 22.22 64.45 1.16 42
5 12/05/2014 06:29:31 77.45, -31.12 116.42 12/05/2014 06:29:17 77.45, -31.10 116.42 0.62 14
6 12/05/2014 07:18:45 -78.06, 139.18 64.28 12/05/2014 07:19:48 -78.05, 139.14 64.32 0.96 63
7 12/07/2014 21:56:48 -76.85, -85.16 62.58 12/07/2014 21:55:38 -76.85, -85.15 62.52 0.40 70
8 12/07/2014 22:46:00 77.47, 84.86 116.75 12/07/2014 22:46:08 77.46, 84.75 116.77 2.76 8
9 12/10/2014 14:13:13 -77.09, 31.58 62.51 12/10/2014 14:12:25 -77.08, 31.56 62.47 0.52 48
10 12/10/2014 15:02:18 78.01,-156.92 116.46 12/10/2014 15:02:47 78.02,-156.82 116.41 2.49 29
11 12/13/2014 06:29:34 -77.47, 148.97 62.67 12/13/2014 06:29:08 -77.48, 149.02 62.66 1.21 26




NCC Satellite Simultaneous Nadir Overpasses (SNOs) Prediction Service
